Location: Cumbre Roja
(10.2766°N, 67.0675°W)
Time: 23:15:21
(UTC+00:00)

YAOGAN 1 - Pass Details

Date: 18 November 2025
Orbit: 605 x 607 km, 97.8° (Epoch: 14 December)

Event Time Altitude Azimuth Distance (km) Brightness Sun altitude
Rises 22:58:37 0° 157° (SSE) 2,855 5.9 -13.9°
Reaches altitude 10° 23:00:52 10° 150° (SSE) 1,951 5.0 -14.4°
Maximum altitude 23:04:55 45° 78° (ENE) 823 2.7 -15.4°
Drops below altitude 10° 23:08:58 10° 5° (N) 1,950 4.9 -16.3°
Sets 23:11:12 0° 359° (N) 2,852 5.8 -16.9°
